Home   Weather   Toruń   Past weeks

Flag for Poland Past Weather in Toruń, Poland — Yesterday and Last 2 Weeks

Now
45 °F

Fog.


Feels Like: 45 °F
Forecast: 26 / 43 °F
Wind: 2 mph from Southwest

Location: Torun

Current Time: Dec 11, 2016 at 5:12:16 am

Latest Report: Dec 11, 2016 at 4:00 am


Visibility: 2 mi

Pressure: 29.89 "Hg

Humidity: 95%

Dew Point: 44 °F

Location of ToruńLocation

Past Weather in Toruń — Graph

°F

Toruń Temperature Yesterday

Maximum temperature yesterday: 50 °F (at 1:00 pm)
Minimum temperature yesterday: 45 °F (at 5:00 am)
Average temperature yesterday: 48 °F

High & Low Weather Summary for the Past Weeks

 TemperatureHumidityPressure
High50 °F (Dec 10, 1:00 pm)100% (Nov 26, 6:00 am)30.62 "Hg (Nov 26, 6:00 am)
Low20 °F (Dec 7, 6:00 am)59% (Nov 27, 2:00 pm)29.35 "Hg (Dec 2, 12:00 am)
Average36 °F90%30.09 "Hg
* Reported Nov 26 3:00 am — Dec 11 3:00 am, Toruń, Weather by CustomWeather, © 2016

Note: Actual official high and low records may vary slightly from our data, if they occured in-between our weather recording intervals... More about our weather records

Advertising

Toruń Weather History for the Previous 24 Hours

Scroll right to see more
 ConditionsComfort  
Time TempWeatherWind HumidityBarometerVisibility
3:00 am
Sun, Dec 11
45 °FFog.2 mph94%29.91 "Hg4 mi
2:00 am45 °FFog.2 mph94%29.94 "Hg3 mi
1:00 am46 °FFog.3 mph94%29.94 "Hg3 mi
12:00 am46 °FFog.2 mph95%29.95 "Hg3 mi
10:00 pm
Sat, Dec 10
47 °FOvercast.2 mph96%29.96 "Hg2 mi
9:00 pm48 °FLight rain. Low clouds.3 mph96%29.96 "Hg2 mi
8:00 pm48 °FDrizzle. Low clouds.2 mph96%29.95 "Hg1 mi
7:00 pm48 °FDrizzle. Low clouds.3 mph96%29.94 "Hg2 mi
6:00 pm48 °FDrizzle. Low clouds.2 mph96%29.94 "Hg3 mi
5:00 pm48 °FDrizzle. Low clouds.3 mph96%29.94 "Hg2 mi
4:00 pm49 °FDrizzle. Low clouds.3 mph96%29.93 "Hg3 mi
3:00 pm49 °FLow clouds.3 mph95%29.91 "Hg3 mi
2:00 pm49 °FLight rain. Low clouds.5 mph96%29.91 "Hg2 mi
1:00 pm50 °FLight rain. Low clouds.3 mph96%29.91 "Hg2 mi
12:00 pm49 °FLight rain. Low clouds.3 mph96%29.91 "Hg2 mi
11:00 am49 °FLight rain. Low clouds.3 mph96%29.93 "Hg2 mi
10:00 am49 °FLight rain. Low clouds.5 mph95%29.94 "Hg2 mi
9:00 am49 °FLow clouds.3 mph95%29.93 "Hg2 mi
8:00 am48 °FLight rain. Low clouds.3 mph96%29.92 "Hg2 mi
7:00 am46 °FLight rain. Low clouds.5 mph96%29.93 "Hg2 mi
6:00 am46 °FLight rain. Low clouds.3 mph96%29.95 "Hg2 mi
5:00 am45 °FRain. Low clouds.3 mph96%30.00 "Hg2 mi
Weather by CustomWeather, © 2016

See weather overviewHow to use our weather pages